N8DH Weather Reports


Display with metric or nautical units.
time (UTC)temp
F
wind
direction
speed
MPH
gust
MPH
rain 1hr
in
rain 24hr
in
rain mn
in
humidity
%
barometer
mb
20260508121524 49 212 3.0 8.0 0.00 0.00 0.00 73 1006.2
20260508120057 50 218 3.0 8.0 0.00 0.00 0.00 74 1006.1
20260508114513 49 188 3.0 9.0 0.00 0.00 0.00 74 1005.9
20260508113100 48 212 2.0 7.0 0.00 0.00 0.00 77 1005.5
20260508111527 47 222 3.0 6.0 0.00 0.00 0.00 80 1005.6
20260508110104 47 211 3.0 7.0 0.00 0.00 0.00 80 1005.5
20260508104535 47 216 1.0 5.0 0.00 0.00 0.00 79 1005.5
20260508103102 48 211 3.0 9.0 0.00 0.00 0.00 77 1005.2
20260508101531 48 234 4.0 10.0 0.00 0.00 0.00 75 1005.3
20260508100114 49 192 8.0 13.0 0.00 0.00 0.00 73 1005.6
20260508094539 47 197 4.0 9.0 0.00 0.00 0.00 78 1005.7
20260508093057 47 180 0.0 6.0 0.00 0.00 0.00 80 1005.5
20260508091518 47 246 2.0 5.0 0.00 0.00 0.00 80 1005.6
20260508090043 46 242 0.0 5.0 0.00 0.00 0.00 79 1005.6
20260508084642 46 225 0.0 6.0 0.00 0.00 0.00 80 1005.7
20260508083019 46 180 3.0 9.0 0.00 0.00 0.00 80 1005.7
20260508081619 46 208 1.0 7.0 0.00 0.00 0.00 80 1005.9
20260508080023 46 221 5.0 9.0 0.00 0.00 0.00 80 1005.8
20260508074600 46 213 4.0 7.0 0.00 0.00 0.00 79 1005.8
20260508073143 46 205 5.0 9.0 0.00 0.00 0.00 79 1005.9
20260508071541 47 186 5.0 8.0 0.00 0.00 0.00 78 1006.0
20260508070107 47 192 4.0 11.0 0.00 0.00 0.00 77 1006.1
20260508064642 48 195 6.0 12.0 0.00 0.00 0.00 75 1006.2
20260508063016 49 204 6.0 18.0 0.00 0.00 0.00 73 1006.2
20260508061556 49 290 5.0 14.0 0.00 0.00 0.00 69 1006.1
20260508060020 48 203 4.0 7.0 0.00 0.00 0.00 70 1006.2
20260508054559 47 202 1.0 6.0 0.00 0.00 0.00 74 1006.3
20260508053138 46 178 0.0 0.0 0.00 0.00 0.00 76 1006.5
20260508051645 46 158 0.0 0.0 0.00 0.00 0.00 77 1006.5
20260508050017 46 165 0.0 0.0 0.00 0.00 0.00 75 1006.7
20260508044601 47 146 0.0 2.0 0.00 0.00 0.00 73 1006.7
20260508043033 47 177 0.0 3.0 0.00 0.00 0.00 72 1006.7
20260508041610 48 173 1.0 4.0 0.00 0.00 0.00 69 1006.7
20260508040003 48 177 3.0 6.0 0.00 0.00 0.00 66 1006.6
20260508034606 49 195 3.0 8.0 0.00 0.00 0.00 65 1006.8
20260508033139 49 197 2.0 7.0 0.00 0.00 0.00 65 1006.9
20260508031510 49 212 3.0 8.0 0.00 0.00 0.00 63 1007.0
20260508030045 50 204 4.0 10.0 0.00 0.00 0.00 63 1007.0
20260508024606 50 198 4.0 12.0 0.00 0.00 0.00 60 1007.1
20260508023024 50 192 3.0 6.0 0.00 0.00 0.00 59 1007.1
20260508021605 50 224 1.0 5.0 0.00 0.00 0.00 57 1007.0
20260508020032 50 238 2.0 5.0 0.00 0.00 0.00 61 1006.9
20260508014558 48 240 1.0 7.0 0.00 0.00 0.00 65 1006.7
20260508013141 46 240 0.0 2.0 0.00 0.00 0.00 77 1006.6
20260508011639 46 290 0.0 2.0 0.00 0.00 0.00 79 1006.4
20260508010006 46 290 0.0 0.0 0.00 0.00 0.00 82 1006.3
20260508004603 47 290 0.0 2.0 0.00 0.00 0.00 72 1006.2
20260508003139 49 290 0.0 0.0 0.00 0.00 0.00 66 1006.2
20260508001634 51 290 0.0 2.0 0.00 0.00 0.00 58 1006.1
20260508000032 52 298 0.0 2.0 0.00 0.00 0.00 57 1006.0
20260507234603 53 288 0.0 3.0 0.00 0.00 0.00 54 1006.0
20260507233146 54 278 0.0 4.0 0.00 0.00 0.00 50 1005.9
20260507231548 54 301 1.0 4.0 0.00 0.00 0.00 48 1005.9
20260507230106 54 296 1.0 9.0 0.00 0.00 0.00 49 1006.0
20260507224541 55 251 2.0 6.0 0.00 0.00 0.00 48 1006.2
20260507223106 55 326 0.0 9.0 0.00 0.00 0.00 48 1006.2
20260507221641 55 277 1.0 7.0 0.00 0.00 0.00 45 1006.2
20260507220042 55 240 1.0 9.0 0.00 0.00 0.00 46 1006.1
20260507214606 55 242 5.0 10.0 0.00 0.00 0.00 44 1006.0
20260507213135 56 288 4.0 10.0 0.00 0.00 0.00 46 1006.0
20260507211542 56 295 2.0 11.0 0.00 0.00 0.00 48 1005.9
20260507210113 56 70 1.0 9.0 0.00 0.00 0.00 51 1005.8
20260507204656 56 247 2.0 6.0 0.00 0.00 0.00 53 1005.7
20260507203149 56 285 4.0 9.0 0.00 0.00 0.00 56 1005.6
20260507201529 56 327 2.0 14.0 0.00 0.00 0.00 51 1005.7
20260507200105 55 224 5.0 17.0 0.00 0.00 0.00 48 1005.7
20260507194608 56 268 8.0 16.0 0.00 0.00 0.00 44 1005.7
20260507193141 55 223 5.0 10.0 0.00 0.00 0.00 50 1005.9
20260507191520 54 294 7.0 14.0 0.00 0.00 0.00 49 1006.1
20260507190105 55 270 1.0 12.0 0.00 0.00 0.00 50 1006.0
20260507184521 57 238 6.0 11.0 0.00 0.00 0.00 52 1006.1
20260507183047 54 246 5.0 10.0 0.00 0.00 0.00 50 1006.1
20260507181615 56 209 7.0 15.0 0.00 0.00 0.00 49 1006.1
20260507180150 56 244 7.0 12.0 0.00 0.00 0.00 53 1006.2
20260507174539 56 250 5.0 11.0 0.00 0.00 0.00 53 1006.2
20260507173105 54 173 4.0 11.0 0.00 0.00 0.00 50 1006.4
20260507171527 55 188 6.0 11.0 0.00 0.00 0.00 47 1006.5
20260507170100 55 293 4.0 9.0 0.00 0.00 0.00 54 1006.5
20260507164541 53 313 2.0 12.0 0.00 0.00 0.00 51 1006.5
20260507163113 55 315 3.0 10.0 0.00 0.00 0.00 51 1006.4
20260507161647 54 229 4.0 8.0 0.00 0.00 0.00 54 1006.4
20260507160024 52 269 2.0 7.0 0.00 0.00 0.00 55 1006.6
20260507154601 53 236 4.0 12.0 0.00 0.00 0.00 51 1006.7
20260507153017 53 293 2.0 7.0 0.00 0.00 0.00 56 1006.7
20260507151600 53 200 1.0 12.0 0.00 0.00 0.00 62 1006.7
20260507150043 52 323 2.0 6.0 0.00 0.00 0.00 63 1006.7
20260507144607 52 207 2.0 7.0 0.00 0.00 0.00 66 1006.7
20260507143037 51 275 3.0 8.0 0.00 0.00 0.00 70 1006.7
20260507141604 50 296 1.0 9.0 0.00 0.00 0.00 68 1006.7
20260507140011 49 260 3.0 7.0 0.00 0.00 0.00 74 1006.8
20260507134604 48 186 3.0 9.0 0.00 0.00 0.00 73 1007.0
20260507133143 48 238 1.0 7.0 0.00 0.00 0.00 74 1007.1
20260507131541 47 208 3.0 6.0 0.00 0.00 0.00 74 1007.0
20260507130110 47 249 3.0 7.0 0.00 0.00 0.00 75 1007.0
20260507124638 46 228 2.0 8.0 0.00 0.00 0.00 78 1007.1